sat.trackr.live / text

‹ back to catalog

STARLINK-3651

NORAD 51985 · 2022-025AF

PAYLOAD ACTIVE UNKNOWN

§ Identity

Operator
Country
US
Launch date
2022-03-09
Launch site
AFETR
Launch vehicle
Mass (kg)
RCS (m²)

Purposes: comms

External: N2YO · Heavens-Above · Gunter

§ Orbital elements

Epoch: 2026-05-25T04:17:24.997056Z

Period
95.44 min
Inclination
53.2127°
Eccentricity
0.0001555
Mean motion
15.08857017 rev/d
Perigee alt
538.6 km
Apogee alt
540.8 km
Semi-major
6,917.8 km
B*
-2.1405e-4
RAAN
55.7567°
Arg perigee
97.7318°
Mean anomaly
262.3851°
Rev number
23,260

§ Raw data

STARLINK-36511 51985U 22025AF  26145.17876154 -.00003695  00000+0 -21405-3 0  99952 51985  53.2127  55.7567 0001555  97.7318 262.3851 15.08857017232608

JSON: /api/v1/satellites/51985 · /tle

For live sub-satellite position, see the globe view (requires WebGL).

§ Visibility from observer

Set your observer location to see the next 7 days of passes ≥ 10°. The values pass through the URL so the page stays shareable.

No JS? Fill the form by hand. The geolocation button needs JavaScript.